C/2017 P2 ( PanSTARRS )

Japanese version
Home page
Updated on November 23, 2017

---------------------------------------------------------------------

* Profile

Discovery Date August 14, 2017
Magnitude 21.9 mag
Discoverer Pan-STARRS 1 telescope (Haleakala)

* Orbital Elements

Epoch 2017 Nov. 23.0 TT = JDT 2458080.5
T 2017 Dec. 6.57145 TT                                  MPCW
q   2.4617561            (2000.0)            P               Q
z  +0.0007620      Peri.  132.24276     +0.53242471     +0.82454268
 +/-0.0000494      Node   165.54555     -0.80184426     +0.41880891
e   0.9981240      Incl.   50.08505     +0.27123739     -0.38043195
From 41 observations 2017 Aug. 14-Oct. 21, mean residual 0".3.

* Magnitudes Graph

        m1 = 15.0 + 5 log d + 10.0 log r

---------------------------------------------------------------------

The orbital elements are published on M.P.E.C. 2017-V13.
The magnitudes graphs are made with Comet for Windows.

---------------------------------------------------------------------

Copyright(C) Seiichi Yoshida (comet@aerith.net). All rights reserved.